Weather in Koblevo

Ukraine / Mykolaiv District     46°39′37″N   31°12′25″E
temp.,
°C
wind,
m/s
gust,
m/s
humid.,
%
clouds,
%
prec.,
mm/h
press.,
hPa
HPBL,
m
21 april, wed
wed2100:00+8wnw467398 0.0 101192
03:00+7wnw357959 0.0 101280
06:00+6w2281100 0.0 101323
09:00+12wsw34615 0.0 1014408
12:00+15sw454441 0.0 10151859
15:00+15ssw775413 0.0 1015846
18:00+13ssw686476 0.2 1016517
21:00+9ssw488717 1.4 1018166
22 april, thu
thu2200:00+9ssw36885 0.0 1018104
03:00+8ssw339017 0.0 101830
06:00+8s33917 0.0 101948
09:00+13s46705 0.0 1020404
12:00+15s56605 0.0 1020743
15:00+15s66595 0.0 1020727
18:00+13s57702 0.0 1019377
21:00+10s511866 0.1 1020302
23 april, fri
fri2300:00+10ssw5128597 0.0 1019289
03:00+10ssw613886 0.0 1018317
06:00+9ssw6139072 0.0 1018333
09:00+12ssw81374100 0.0 1018537
12:00+13ssw81371100 1.0 1018650
15:00+12ssw91277100 1.3 1017509
18:00+11sw61191100 2.8 1017650
21:00+8nw478998 6.5 1018558
24 april, sat
sat2400:00+6nnw49893 0.0 1019334
03:00+5nw35873 0.0 1019112
06:00+4wnw35875 0.0 1020107
09:00+9wnw446293 0.0 1020587
12:00+10wnw555885 0.1 10211271
15:00+12w575085 0.5 10201691
18:00+12w574472 0.2 10201684
21:00+7wnw48525 0.2 1021138
25 april, sun
sun2500:00+5nw366056 0.0 102288
03:00+5nw3361100 0.0 102246
06:00+4nw2362100 0.0 102126
09:00+8ene1144100 0.0 1021344
12:00+12ssw443732 0.0 10211401
15:00+12ssw554638 0.0 10191436
18:00+11ssw665211 0.0 1018719
21:00+8sw5872100 0.1 1019385